, TX

(GMT )
Boomvang

Weather History for KVAF - December, 2013

Change the Weather History Date:

Sunday, December 1, 2013

  Actual Average Record
Temperature  
Mean Temperature 72 °F -  
Max Temperature 75 °F - - ()
Min Temperature 68 °F - - ()
Cooling Degree Days 6    
Growing Degree Days 22 (Base 50)    
Moisture  
Dew Point 56 °F    
Average Humidity 57    
Maximum Humidity 64    
Minimum Humidity 50    
Precipitation  
Precipitation 0.00 in - - ()
Sea Level Pressure  
Sea Level Pressure 30.13 in    
Wind  
Wind Speed 10 mph (SSE)    
Max Wind Speed 18 mph    
Max Gust Speed -    
Visibility 10 miles    
Events      
T = Trace of Precipitation, MM = Missing Value Source: NWS Daily Summary

Daily Weather History Graph

Daily Weather History Graph

Search for Another Location

Airport or City:

Trip Planner

Search our weather history database for the weather conditions in past years. The results will help you decide how hot, cold, wet, or windy it might be!

Date:

Astronomy

Dec. 01, 2013 Rise Set
Actual Time 6:51 AM CST 5:23 PM CST
Civil Twilight 6:26 AM CST 5:49 PM CST
Nautical Twilight 5:57 AM CST 6:17 PM CST
Astronomical Twilight 5:29 AM CST 6:46 PM CST
Moon 5:17 AM CST (12/1) 4:29 PM CST (12/1)
Length of Visible Light 11h 22m
Length of Day
10h 32m
Waning Crescent, 2% of the Moon is Illuminated
Dec 1
Waning Crescent
Dec 2
New
Dec 9
First Quarter
Dec 17
Full
Dec 25
Last Quarter

Hourly Weather History & Observations

Time (CST) Temp. Dew Point Humidity Pressure Visibility Wind Dir Wind Speed Gust Speed Precip Events Conditions
12:15 AM 68.0 °F 53.6 °F 60% 30.21 in 10.0 mi SSE 12.7 mph - N/A   Clear
12:35 AM 68.0 °F 53.6 °F 60% 30.21 in 10.0 mi SE 12.7 mph - N/A   Clear
12:55 AM 68.0 °F 53.6 °F 60% 30.21 in 10.0 mi SE 11.5 mph - N/A   Clear
1:15 AM 68.0 °F 55.4 °F 64% 30.21 in 10.0 mi South 11.5 mph - N/A   Clear
1:35 AM 68.0 °F 53.6 °F 60% 30.20 in 10.0 mi SSE 12.7 mph - N/A   Clear
1:55 AM 68.0 °F 53.6 °F 60% 30.19 in 10.0 mi South 11.5 mph - N/A   Clear
2:15 AM 68.0 °F 53.6 °F 60% 30.19 in 10.0 mi South 11.5 mph - N/A   Clear
2:35 AM 69.8 °F 53.6 °F 56% 30.18 in 10.0 mi SSE 12.7 mph - N/A   Clear
2:55 AM 69.8 °F 55.4 °F 60% 30.18 in 10.0 mi South 10.4 mph - N/A   Clear
3:15 AM 69.8 °F 55.4 °F 60% 30.18 in 10.0 mi South 8.1 mph - N/A   Clear
3:35 AM 69.8 °F 55.4 °F 60% 30.19 in 10.0 mi South 10.4 mph - N/A   Clear
3:55 AM 69.8 °F 55.4 °F 60% 30.19 in 10.0 mi SSW 8.1 mph - N/A   Clear
4:15 AM 69.8 °F 55.4 °F 60% 30.19 in 10.0 mi SSW 8.1 mph - N/A   Clear
4:35 AM 69.8 °F 55.4 °F 60% 30.19 in 10.0 mi SSE 5.8 mph - N/A   Clear
4:55 AM 69.8 °F 53.6 °F 56% 30.19 in 10.0 mi SSW 5.8 mph - N/A   Clear
5:15 AM 69.8 °F 53.6 °F 56% 30.19 in 10.0 mi SSE 6.9 mph - N/A   Clear
5:35 AM 69.8 °F 55.4 °F 60% 30.19 in 10.0 mi SSW 8.1 mph - N/A   Clear
5:55 AM 69.8 °F 53.6 °F 56% 30.20 in 10.0 mi SSE 4.6 mph - N/A   Clear
6:15 AM 69.8 °F 53.6 °F 56% 30.20 in 10.0 mi Calm Calm - N/A   Clear
6:35 AM 69.8 °F 53.6 °F 56% 30.20 in 10.0 mi ESE 4.6 mph - N/A   Clear
6:55 AM 69.8 °F 55.4 °F 60% 30.20 in 10.0 mi SE 6.9 mph - N/A   Clear
7:15 AM 69.8 °F 55.4 °F 60% 30.20 in 10.0 mi SSE 5.8 mph - N/A   Clear
7:35 AM 71.6 °F 55.4 °F 57% 30.20 in 10.0 mi SE 5.8 mph - N/A   Clear
7:55 AM 71.6 °F 55.4 °F 57% 30.20 in 10.0 mi SE 5.8 mph - N/A   Clear
8:15 AM 73.4 °F 55.4 °F 53% 30.20 in 10.0 mi SE 9.2 mph - N/A   Clear
8:35 AM 73.4 °F 55.4 °F 53% 30.20 in 10.0 mi SE 5.8 mph - N/A   Clear
8:55 AM 73.4 °F 55.4 °F 53% 30.21 in 10.0 mi ESE 5.8 mph - N/A   Clear
9:15 AM 75.2 °F 55.4 °F 50% 30.21 in 10.0 mi SE 4.6 mph - N/A   Clear
9:35 AM 75.2 °F 55.4 °F 50% 30.22 in 10.0 mi ESE 5.8 mph - N/A   Clear
9:55 AM 75.2 °F 55.4 °F 50% 30.22 in 10.0 mi ESE 5.8 mph - N/A   Clear
10:15 AM 75.2 °F 55.4 °F 50% 30.21 in 10.0 mi SE 6.9 mph - N/A   Clear
10:35 AM 75.2 °F 55.4 °F 50% 30.20 in 8.0 mi SE 5.8 mph - N/A   Clear
10:55 AM 73.4 °F 55.4 °F 53% 30.20 in 1.8 mi SE 6.9 mph - N/A   Haze
11:15 AM 73.4 °F 55.4 °F 53% 30.20 in 1.2 mi ESE 3.5 mph - N/A   Haze
11:35 AM 75.2 °F 55.4 °F 50% 30.19 in 3.0 mi ESE 4.6 mph - N/A   Haze
11:55 AM 75.2 °F 55.4 °F 50% 30.17 in 10.0 mi ESE 6.9 mph - N/A   Clear
12:15 PM 75.2 °F 55.4 °F 50% 30.15 in 10.0 mi SE 5.8 mph - N/A   Clear
12:35 PM 75.2 °F 55.4 °F 50% 30.15 in 10.0 mi SSE 4.6 mph - N/A   Clear
12:55 PM 75.2 °F 57.2 °F 53% 30.13 in 10.0 mi ESE 8.1 mph - N/A   Clear
1:15 PM 75.2 °F 57.2 °F 53% 30.12 in 10.0 mi SSE 6.9 mph - N/A   Clear
1:35 PM 75.2 °F 55.4 °F 50% 30.11 in 10.0 mi SE 5.8 mph - N/A   Clear
1:55 PM 75.2 °F 55.4 °F 50% 30.10 in 10.0 mi SE 8.1 mph - N/A   Clear
2:15 PM 75.2 °F 55.4 °F 50% 30.09 in 10.0 mi SE 8.1 mph - N/A   Clear
2:35 PM 75.2 °F 55.4 °F 50% 30.09 in 10.0 mi ESE 8.1 mph - N/A   Clear
2:55 PM 75.2 °F 55.4 °F 50% 30.09 in 10.0 mi SE 5.8 mph - N/A   Clear
3:15 PM 75.2 °F 55.4 °F 50% 30.09 in 10.0 mi Variable 5.8 mph - N/A   Clear
3:35 PM 73.4 °F 55.4 °F 53% 30.09 in 10.0 mi SSE 3.5 mph - N/A   Clear
3:55 PM 73.4 °F 55.4 °F 53% 30.07 in 10.0 mi Variable 6.9 mph - N/A   Clear
4:15 PM 73.4 °F 55.4 °F 53% 30.06 in 10.0 mi SSE 8.1 mph - N/A   Clear
4:35 PM 73.4 °F 55.4 °F 53% 30.07 in 10.0 mi SSE 5.8 mph - N/A   Clear
4:55 PM 73.4 °F 55.4 °F 53% 30.07 in 10.0 mi SSE 5.8 mph - N/A   Clear
5:15 PM 71.6 °F 55.4 °F 57% 30.07 in 10.0 mi South 8.1 mph - N/A   Clear
5:35 PM 71.6 °F 55.4 °F 57% 30.07 in 10.0 mi South 9.2 mph - N/A   Clear
5:55 PM 71.6 °F 57.2 °F 60% 30.07 in 10.0 mi South 10.4 mph - N/A   Clear
6:15 PM 71.6 °F 57.2 °F 60% 30.07 in 10.0 mi SSW 10.4 mph - N/A   Clear
6:35 PM 71.6 °F 57.2 °F 60% 30.06 in 10.0 mi SSW 10.4 mph - N/A   Clear
6:55 PM 71.6 °F 57.2 °F 60% 30.05 in 10.0 mi SSW 12.7 mph - N/A   Clear
7:15 PM 71.6 °F 57.2 °F 60% 30.05 in 10.0 mi SSW 12.7 mph - N/A   Clear
7:35 PM 71.6 °F 59.0 °F 64% 30.04 in 10.0 mi SSW 12.7 mph - N/A   Clear
7:55 PM 71.6 °F 57.2 °F 60% 30.05 in 10.0 mi SSW 10.4 mph - N/A   Clear
8:15 PM 71.6 °F 57.2 °F 60% 30.05 in 10.0 mi SW 13.8 mph - N/A   Clear
8:35 PM 71.6 °F 59.0 °F 64% 30.05 in 10.0 mi SW 15.0 mph - N/A   Clear
8:55 PM 71.6 °F 57.2 °F 60% 30.04 in 10.0 mi SW 15.0 mph - N/A   Clear
9:15 PM 71.6 °F 57.2 °F 60% 30.04 in 10.0 mi SW 16.1 mph - N/A   Clear
9:35 PM 71.6 °F 57.2 °F 60% 30.05 in 10.0 mi WSW 15.0 mph - N/A   Clear
9:55 PM 71.6 °F 57.2 °F 60% 30.04 in 10.0 mi SW 13.8 mph - N/A   Clear
10:15 PM 71.6 °F 57.2 °F 60% 30.04 in 10.0 mi SW 16.1 mph - N/A   Clear
10:35 PM 71.6 °F 59.0 °F 64% 30.03 in 10.0 mi SW 16.1 mph - N/A   Clear
10:55 PM 71.6 °F 57.2 °F 60% 30.02 in 10.0 mi SW 17.3 mph - N/A   Clear
11:15 PM 71.6 °F 59.0 °F 64% 30.02 in 10.0 mi SW 18.4 mph - N/A   Clear
11:35 PM 71.6 °F 59.0 °F 64% 30.01 in 10.0 mi SW 17.3 mph - N/A   Clear
11:55 PM 71.6 °F 59.0 °F 64% 30.00 in 10.0 mi SW 16.1 mph - N/A   Clear